Temp
18 17 17 17 17 17 16 16 16 16 16 16 15 15 15 14 14 14 14 14 14 14 14 14 14 13 13 13 13 12 12 12 12 12 12 12 12 12 12 12 12 12 11 11 12 12 12 12 12 12 12 12 12 12 12 12 12 12 11 11 11 11 11 11 10 10 11 11 11 10 10 10 10 10 10 10 10 9 9 9 9 9 9 9 9
17 17 17 17 17 16 16 16 16 16 16 15 15 15 14 14 14 14 14 14 14 14 14 14 13 13 13 12 12 12 12 12 12 12 12 12 12 12 12 12 12 11 11 11 11 12 12 12 12 12 12 12 12 12 12 12 12 11 11 11 11 11 11 11 11 10 11 11 10 10 10 10 10 10 9 9 9 9 9 9 9 9 9 9 9
17 17 17 17 17 16 16 16 16 16 15 15 15 15 14 14 14 14 14 14 14 14 14 14 13 13 13 12 12 12 12 12 12 12 12 12 12 11 12 12 11 11 11 11 11 11 12 12 12 12 12 12 12 12 12 12 12 11 11 11 11 11 11 11 11 10 10 10 10 10 10 10 10 9 9 9 9 9 9 9 9 9 9 9 9
17 17 17 17 16 16 16 16 16 15 15 15 15 15 14 14 14 14 14 14 14 14 14 13 13 13 12 12 12 12 12 12 12 12 12 12 12 11 11 11 11 11 11 11 11 11 12 12 11 12 12 12 12 11 11 11 11 11 11 11 11 11 11 11 11 10 10 10 9 9 9 10 9 9 9 9 9 9 9 9 9 9 9 9 9
17 17 17 16 16 16 16 16 15 15 15 15 15 15 14 14 13 14 14 14 14 14 13 13 13 13 12 12 12 12 12 12 12 12 12 12 12 11 11 11 11 11 11 11 11 11 11 11 11 12 12 12 11 11 11 11 11 11 11 11 10 10 10 10 10 10 10 10 9 9 9 10 9 9 9 9 9 9 9 9 9 9 9 9 9
17 17 17 16 16 16 16 15 15 15 15 15 15 14 14 13 13 14 14 14 14 13 13 13 13 12 12 12 12 12 12 12 12 12 12 12 12 11 11 11 11 11 11 11 11 11 11 11 11 11 12 11 11 11 11 11 11 11 11 11 10 10 10 10 10 10 10 9 9 9 9 9 9 9 9 9 9 9 9 9 9 9 9 9 9
17 17 16 16 16 15 15 15 15 15 15 15 15 14 13 13 14 14 14 14 14 13 13 13 13 12 12 12 12 12 12 12 12 12 12 11 11 11 11 11 11 11 11 11 11 11 11 11 11 11 11 11 11 11 11 11 11 11 11 10 10 10 10 10 10 10 10 9 9 9 9 9 9 9 9 9 9 8 8 8 8 9 9 9 9
17 16 16 16 15 15 15 15 15 15 15 15 15 14 13 13 14 14 14 14 14 13 13 13 12 12 12 12 12 12 12 12 12 12 11 11 11 11 11 11 11 11 11 11 11 11 11 11 11 11 11 11 11 11 11 11 11 11 10 10 10 10 10 10 10 10 10 9 9 9 9 9 9 9 9 9 9 8 8 7 8 8 9 9 9
17 16 16 16 15 15 15 14 14 14 14 14 14 13 13 13 14 14 14 14 13 13 13 13 12 12 12 12 12 12 12 12 12 12 12 12 11 11 11 11 11 11 11 11 11 11 11 10 10 10 11 11 11 11 11 11 11 11 10 10 10 11 11 10 10 10 10 9 9 9 9 9 9 9 9 9 8 8 8 8 8 8 8 9 9
16 16 15 15 15 15 15 14 14 14 14 14 14 13 13 13 14 14 14 14 13 13 13 13 13 12 12 12 12 12 12 12 12 12 12 12 12 11 11 11 11 11 11 11 10 10 10 10 10 10 11 11 10 10 11 11 11 11 10 10 10 10 10 10 10 10 10 9 9 9 9 9 9 9 9 8 8 8 8 8 8 8 8 8 9
16 16 15 15 15 15 14 14 14 14 14 14 14 13 13 13 14 14 14 13 13 13 13 13 13 13 12 12 12 12 12 12 12 12 12 12 12 11 11 11 11 11 11 11 10 10 10 10 10 10 11 11 10 10 11 11 11 11 10 10 10 10 10 10 10 9 9 9 9 9 9 9 9 9 9 8 8 8 8 8 8 8 8 7 7
16 16 15 15 14 14 14 14 14 14 14 14 13 13 13 13 13 13 13 13 13 13 13 13 13 13 13 12 12 12 12 12 12 12 12 12 12 11 11 11 11 11 11 11 10 10 10 10 10 10 11 11 11 11 11 10 10 10 10 10 10 9 9 9 9 9 9 9 9 9 9 9 9 9 8 8 8 8 9 9 8 8 8 7 7
16 16 15 14 14 14 14 14 14 14 14 14 13 13 13 13 13 14 14 14 14 13 13 13 13 13 13 12 12 12 12 12 12 12 12 12 11 11 11 11 11 11 10 10 10 10 10 10 10 10 10 11 11 11 10 10 10 10 10 10 9 9 9 9 9 9 9 9 9 10 9 9 9 9 9 8 8 8 9 9 9 8 8 8 8
16 15 15 14 14 14 14 14 14 14 14 13 13 13 13 13 14 14 14 14 14 13 13 13 13 13 13 13 12 12 12 12 12 12 11 11 11 11 11 11 11 11 10 10 10 10 10 10 10 10 10 10 10 10 10 10 10 10 10 10 10 10 10 9 9 9 9 9 9 10 9 9 9 9 9 9 9 9 9 9 9 8 9 9 9
15 15 14 14 14 14 14 14 14 14 14 13 13 13 13 14 14 14 14 14 14 14 13 13 13 13 13 13 13 12 12 12 12 12 11 11 11 11 11 11 11 10 10 10 10 10 10 10 10 10 10 10 10 10 10 10 10 10 10 10 10 10 10 10 9 9 9 9 9 10 10 9 9 9 9 9 9 9 9 9 9 9 9 9 9
15 14 14 14 14 14 14 14 14 14 14 13 13 13 13 14 14 14 14 14 14 14 14 13 13 13 13 13 13 12 12 12 12 12 11 11 11 11 11 11 10 10 10 10 10 10 10 10 10 10 10 10 10 10 10 10 10 10 10 10 10 10 10 10 10 9 9 10 10 9 10 10 10 9 10 10 10 10 9 9 9 9 9 9 9
15 14 14 14 14 14 14 14 14 13 13 13 13 13 14 14 14 14 14 14 14 14 14 13 13 13 13 13 13 12 12 12 12 12 11 11 11 11 11 11 10 10 10 10 10 10 10 10 10 10 10 10 10 10 10 10 10 10 10 9 10 10 10 10 10 9 9 10 10 9 10 10 10 10 10 10 10 10 9 9 9 9 9 8 8
14 14 14 14 14 14 14 14 14 13 13 13 13 13 14 14 14 14 14 14 14 14 14 13 13 13 13 13 13 13 12 12 12 11 11 11 11 11 11 10 10 10 10 10 10 10 10 10 10 10 10 10 10 10 10 10 10 10 10 9 10 10 10 9 9 10 10 10 10 10 10 10 10 10 10 10 10 10 9 9 9 9 9 8 7
14 14 14 14 14 14 14 14 14 14 13 13 13 13 13 13 14 14 14 14 14 14 14 13 13 13 13 13 13 13 12 12 12 11 11 11 11 10 10 10 10 10 10 10 10 10 10 10 10 10 10 10 10 9 10 10 10 10 9 9 9 9 9 9 10 10 10 10 10 10 10 10 10 10 10 10 10 10 9 9 9 9 9 9 8
14 14 14 14 14 13 14 14 14 14 14 13 13 13 13 13 13 14 14 14 14 13 13 13 13 13 13 13 13 12 12 12 11 11 11 11 11 10 10 10 10 9 10 10 10 10 10 10 10 10 10 10 10 10 9 10 10 10 9 9 9 9 9 9 10 10 10 10 10 10 10 10 10 10 10 10 10 10 10 10 10 9 9 9 9
15 14 14 14 13 14 14 14 14 14 14 13 13 13 13 13 13 13 13 13 13 13 13 13 13 13 12 12 12 12 12 12 11 11 11 11 11 11 10 10 10 10 10 10 10 10 10 10 10 10 10 10 10 10 10 10 10 10 10 9 10 10 10 10 10 10 10 10 10 10 10 10 10 10 10 10 10 10 10 10 10 10 10 9 9
15 14 14 14 14 14 14 14 14 14 13 13 13 13 13 13 13 13 13 13 13 13 13 13 12 12 12 11 11 11 12 12 12 11 11 10 10 10 10 10 10 10 10 10 10 10 10 10 10 10 10 10 10 10 10 10 10 10 10 10 10 10 10 10 10 10 10 10 10 10 10 10 10 10 10 10 10 10 10 10 10 10 10 10 9
14 14 14 14 13 13 13 13 13 13 13 13 13 13 13 13 13 13 13 13 13 13 12 12 12 11 11 11 11 11 11 11 11 11 11 10 10 10 10 10 10 10 10 10 10 10 10 10 10 10 10 10 10 10 10 10 10 10 10 10 10 10 10 10 10 10 10 10 10 10 10 10 10 10 10 10 10 10 10 10 10 10 10 10 10
14 14 14 13 13 13 13 13 13 13 13 13 13 13 13 13 13 13 13 13 12 12 12 11 11 11 10 10 10 10 10 11 11 11 11 10 10 10 10 10 10 10 10 10 10 10 10 10 10 10 10 10 10 10 10 10 10 10 10 10 10 10 10 10 10 10 10 10 10 10 10 10 10 10 10 10 10 10 10 10 10 10 10 10 10
14 14 13 13 13 13 13 13 13 13 13 13 13 12 12 12 13 13 13 13 12 11 11 11 10 10 10 10 10 10 10 10 10 10 10 10 10 10 10 9 9 10 10 10 10 10 10 10 10 10 10 10 10 9 9 10 10 10 10 10 10 10 10 10 10 10 10 10 10 10 10 10 10 10 10 10 10 10 10 10 10 10 10 10 10
14 13 13 13 13 13 13 12 12 12 12 12 13 13 13 13 13 13 12 12 12 11 11 10 10 10 10 10 10 10 10 10 10 10 10 10 10 10 9 9 9 9 9 10 10 10 10 10 10 10 10 10 10 10 10 10 10 10 10 10 10 10 10 10 10 10 10 10 10 10 10 10 10 10 10 10 10 10 10 10 10 10 10 10 10
14 13 13 13 13 13 12 12 12 12 12 12 12 13 13 13 13 12 12 12 11 11 11 10 10 10 9 9 9 10 10 10 9 10 10 9 9 9 9 9 9 9 9 9 9 9 9 9 10 10 10 10 10 10 10 10 10 10 10 10 10 10 10 10 10 10 10 10 10 10 10 10 10 10 10 10 10 10 10 10 10 10 10 10 10
14 13 13 13 13 13 12 12 12 12 12 12 13 13 13 12 12 12 12 12 12 11 11 11 10 10 10 9 9 9 9 9 10 10 10 10 9 9 8 8 8 9 9 9 9 9 9 9 10 10 10 10 9 9 10 10 10 10 10 10 10 10 10 10 10 10 10 10 10 10 10 10 10 10 10 10 10 10 10 10 10 10 10 10 10
13 13 13 13 13 13 12 12 13 13 12 12 12 12 12 12 13 12 13 13 13 13 12 12 11 11 11 10 10 9 9 9 10 10 10 10 10 9 9 9 9 9 9 9 8 8 8 9 10 10 10 9 9 9 9 9 10 10 10 10 10 10 10 10 10 10 10 10 10 10 10 10 10 10 10 10 11 10 10 10 10 10 10 10 10
13 13 13 13 13 12 12 12 13 13 12 12 11 11 12 12 12 12 13 13 13 13 13 13 12 12 11 11 11 10 10 11 11 11 10 10 10 10 10 9 9 9 9 9 8 8 8 8 9 9 9 9 9 9 9 9 9 10 10 10 9 9 9 10 10 10 11 10 10 10 11 10 10 10 10 11 11 10 10 10 10 10 10 10 10
12 12 12 12 12 12 12 12 12 12 12 11 11 11 11 11 11 12 12 12 12 13 13 13 13 13 12 11 11 11 11 11 11 11 10 10 10 10 10 10 9 9 9 8 8 7 8 8 8 8 8 8 9 9 9 9 9 9 10 9 9 9 10 10 11 11 11 11 11 11 11 11 10 10 11 11 11 10 10 10 10 10 10 10 10
12 12 12 12 12 12 12 12 12 11 11 11 11 11 11 10 10 11 11 11 12 12 12 12 12 12 12 11 11 10 10 10 10 10 10 10 10 10 10 10 10 9 9 8 7 7 7 7 8 8 8 8 9 9 9 9 9 9 9 9 10 10 10 11 11 11 11 11 11 11 11 11 11 10 11 11 11 10 10 10 10 10 10 10 10
13 12 12 12 12 12 12 12 11 11 11 11 10 11 11 10 10 10 10 10 11 11 11 11 11 11 11 11 11 10 10 10 10 10 10 10 10 10 10 10 9 9 8 7 7 7 7 7 7 8 8 8 8 9 9 9 9 9 9 10 10 10 11 11 11 11 11 11 11 11 11 11 11 11 11 11 11 10 10 10 10 10 10 10 10
13 13 13 13 12 12 12 11 11 11 11 10 10 10 10 10 10 10 9 9 9 10 10 10 10 10 10 10 10 10 10 10 10 10 10 10 10 10 10 9 9 8 7 6 6 7 7 7 7 7 8 8 8 8 9 9 9 9 10 10 10 10 10 11 11 11 11 11 11 11 11 11 11 11 11 11 10 10 10 10 10 10 10 10 10
13 13 13 13 12 12 12 12 11 11 11 11 10 10 10 10 10 10 9 9 9 9 9 9 10 10 10 10 10 10 10 10 10 10 11 11 10 10 9 8 7 6 6 6 6 6 7 7 7 7 7 7 8 8 8 9 9 9 10 10 10 10 10 11 11 11 11 11 11 11 11 11 11 11 10 10 10 10 10 10 10 10 10 10 10
13 12 12 12 12 12 12 12 11 11 11 11 10 10 10 10 9 9 9 9 9 9 9 9 9 10 10 10 10 10 11 10 10 11 11 11 10 9 8 7 7 6 6 6 6 6 6 7 7 7 7 7 7 7 8 8 9 10 10 10 9 9 10 10 11 11 11 11 11 11 11 11 11 11 10 10 10 10 10 10 10 10 10 10 10
13 12 12 12 11 11 11 11 11 11 10 10 10 10 9 9 9 9 9 9 9 9 9 9 9 9 10 10 10 10 10 10 10 10 10 10 10 9 9 8 8 7 7 7 7 6 6 6 7 7 7 7 7 7 7 8 9 9 10 9 9 9 10 10 11 11 11 11 11 11 11 11 11 11 10 10 10 10 10 10 10 10 10 10 10
13 13 13 12 11 11 11 10 10 10 10 10 10 9 9 9 9 9 9 9 9 9 9 9 9 9 10 10 10 10 10 10 10 10 9 9 9 9 9 9 8 7 7 8 7 7 6 6 6 6 6 7 7 7 7 8 8 9 9 9 9 9 10 10 10 10 11 11 11 11 11 11 10 10 10 10 10 10 10 10 10 10 10 10 10
13 14 13 13 12 11 11 10 10 10 10 10 10 10 9 9 9 8 8 8 8 8 8 9 9 10 10 10 10 10 10 10 10 9 9 8 8 8 8 8 7 7 8 8 8 7 7 7 7 7 7 7 7 7 7 8 8 8 8 9 9 9 9 10 10 10 10 11 11 11 11 11 10 10 10 10 10 10 10 10 10 10 10 10 10
14 14 13 13 12 11 11 10 10 10 10 10 10 10 9 9 9 8 8 8 8 8 8 9 9 10 10 9 10 10 10 10 10 9 9 9 8 8 8 8 7 8 8 8 8 8 8 8 8 7 7 7 7 7 7 8 8 8 8 8 8 9 9 9 10 10 10 10 11 10 10 10 10 10 10 10 10 10 10 10 10 10 10 10 10
14 14 13 12 12 11 10 10 10 10 10 10 10 10 9 9 9 9 8 8 8 8 8 8 9 9 10 10 10 10 10 10 10 9 9 9 9 9 8 8 8 8 8 8 8 8 8 8 8 8 8 7 7 7 7 7 7 8 8 8 8 8 9 9 10 10 10 10 10 10 10 10 10 10 10 10 10 10 10 10 10 10 10 10 9
14 13 12 12 11 10 10 10 10 10 10 10 10 10 9 9 9 9 9 8 8 8 8 8 9 9 10 10 9 9 9 9 9 9 9 9 9 9 8 8 8 8 8 8 8 8 8 8 8 8 7 7 7 7 7 7 7 8 8 8 8 8 9 9 10 10 10 10 10 10 10 10 10 10 10 10 10 10 10 10 10 10 10 9 9
13 13 12 12 11 11 10 10 10 10 9 10 10 10 9 9 9 9 9 9 8 8 8 8 8 9 9 9 9 8 9 9 9 9 8 8 8 8 8 8 8 8 8 8 8 8 8 8 8 7 7 7 7 7 7 7 7 7 8 8 8 8 9 9 10 10 10 10 10 10 10 10 10 10 10 10 10 10 10 10 10 9 9 9 8
13 13 12 12 11 11 11 10 10 10 10 10 10 10 9 9 9 9 9 9 9 9 9 8 8 9 9 9 8 8 8 8 8 8 8 8 8 8 8 8 8 8 8 8 8 8 7 7 7 7 7 7 7 7 7 7 7 7 8 8 8 8 9 9 10 10 10 10 10 10 10 10 10 10 10 10 9 9 9 9 9 9 8 8 8
13 13 12 12 11 11 10 10 10 10 10 10 9 9 9 9 9 9 9 9 9 9 9 9 9 9 9 8 8 8 8 8 8 8 8 8 8 8 8 8 8 8 8 8 7 7 7 7 7 7 7 7 7 7 7 7 7 7 8 8 8 8 9 9 9 9 10 10 10 10 10 10 10 10 10 9 9 9 9 9 8 8 8 8 7
13 13 12 11 11 10 10 10 10 10 10 10 9 9 9 9 9 9 9 9 9 9 9 9 9 9 9 9 9 9 9 9 8 8 8 9 9 9 8 8 8 8 8 7 7 7 7 6 7 7 7 7 7 7 7 7 7 7 8 8 8 8 9 9 9 9 9 9 9 9 9 10 9 9 9 9 9 9 9 9 8 7 7 7 7
13 12 12 11 11 10 10 10 10 10 10 10 10 9 9 9 9 9 9 9 9 9 9 9 9 9 9 9 9 9 9 9 9 9 9 9 9 9 9 9 8 8 8 7 7 7 7 6 7 7 7 7 7 7 7 7 7 7 8 8 8 8 8 8 9 9 9 9 9 9 9 9 9 9 9 9 9 9 9 8 7 7 7 6 6
13 12 12 12 11 10 10 10 10 10 9 9 9 9 9 9 9 9 9 9 8 8 9 9 9 9 9 9 9 9 9 9 9 9 9 9 9 9 9 9 8 8 8 7 7 7 7 7 7 7 7 7 7 7 7 7 7 7 8 8 8 8 8 8 8 9 9 9 9 9 9 9 8 8 8 8 8 8 8 7 7 7 6 5 5
13 12 12 12 11 11 10 10 10 9 9 9 9 9 9 9 9 8 8 8 8 8 9 9 9 9 9 9 9 9 9 9 9 9 9 9 9 9 9 9 8 8 8 8 8 7 7 7 7 7 7 7 7 7 7 8 8 7 7 8 8 8 8 8 8 8 8 9 9 9 8 8 8 8 8 8 8 7 7 7 6 6 5 4 4
13 13 12 12 11 11 11 10 10 9 9 9 9 9 9 8 8 8 8 8 8 8 8 9 9 9 9 9 9 9 9 9 9 9 9 9 9 9 9 9 8 8 8 8 8 8 8 8 8 8 8 8 8 8 8 8 8 7 7 8 8 8 8 8 8 8 8 8 8 8 8 7 7 7 7 7 7 7 6 6 5 5 4 4 3
12 12 12 12 11 11 11 10 10 9 9 9 9 9 8 8 8 8 8 8 8 8 8 8 8 8 9 9 9 9 9 9 9 9 9 9 9 9 9 8 8 8 8 8 8 8 8 8 8 8 8 8 8 8 8 8 8 8 8 8 8 8 8 8 8 8 8 8 7 7 7 7 7 7 7 6 6 5 5 5 4 4 3 3 3
Height
766 769 771 774 777 779 783 785 787 790 792 795 797 799 802 805 807 808 810 813 815 817 818 820 821 822 823 824 825 827 828 829 830 831 832 833 834 835 837 839 840 841 843 844 844 845 846 847 848 849 850 851 851 851 851 850 851 852 854 855 856 857 857 858 860 862 863 863 863 862 861 860 858 857 855 853 851 850 849 848 846 844 842 840 839
764 767 770 773 776 778 781 784 786 789 791 794 796 799 801 804 805 807 810 812 814 816 817 819 820 821 822 824 825 827 828 829 830 831 832 833 834 836 838 839 840 841 842 843 844 846 847 847 848 850 851 851 851 851 851 851 851 853 855 856 856 857 858 859 861 862 863 863 862 862 860 859 858 857 855 853 852 850 849 847 845 844 842 841 839
762 766 768 771 774 777 780 782 785 787 790 792 795 798 800 802 804 806 809 811 813 815 817 818 820 821 822 824 825 826 828 829 830 831 832 833 834 836 838 838 839 840 841 843 844 846 847 848 849 850 851 851 852 852 852 852 853 854 855 856 857 857 859 860 860 862 862 862 862 861 860 859 858 856 855 854 852 850 848 847 845 844 842 841 839
761 764 767 770 773 776 778 781 784 786 789 791 794 797 799 801 804 806 808 811 813 815 817 818 819 820 822 823 824 826 828 829 830 831 832 833 834 836 838 839 839 840 841 842 844 846 847 848 849 850 851 851 852 853 853 853 854 854 856 857 857 858 859 860 860 861 861 861 861 861 860 859 858 856 855 853 852 850 848 847 845 844 842 841 839
759 762 765 768 771 774 777 779 782 785 787 790 793 796 798 800 803 806 808 810 812 814 816 817 818 820 821 822 824 826 827 829 830 831 833 834 835 836 837 839 839 840 841 842 844 845 846 847 848 849 849 850 851 852 853 853 854 855 856 857 858 858 859 860 860 860 860 861 861 861 860 859 858 856 855 853 851 849 848 846 844 843 842 840 839
757 760 763 767 769 772 775 778 781 784 786 789 792 795 797 800 802 805 807 809 811 813 815 816 818 819 821 822 824 825 827 829 830 831 833 834 835 837 838 839 840 840 841 842 843 844 845 845 846 846 847 848 849 851 852 853 854 855 856 857 858 858 859 860 860 860 860 860 860 860 859 858 857 856 855 854 852 849 847 846 844 842 841 840 838
755 758 761 764 767 770 773 776 779 782 785 788 790 793 796 799 801 804 806 808 810 812 814 815 817 819 821 822 824 825 827 828 830 831 833 834 835 836 837 838 840 840 841 842 843 844 844 845 845 846 847 847 848 850 851 852 853 854 856 857 858 858 859 859 859 859 859 860 860 860 859 858 857 856 855 854 853 851 849 847 844 843 841 839 838
753 756 759 763 766 768 771 775 778 781 784 787 790 793 796 799 801 803 806 808 809 811 812 814 817 819 820 822 823 825 826 828 830 831 832 834 835 836 837 838 839 840 841 842 843 844 845 846 846 847 848 848 848 850 851 851 852 854 855 857 858 858 858 858 859 859 859 860 860 859 859 858 857 856 855 854 853 851 850 849 846 843 841 839 838
751 754 758 761 764 767 771 774 777 780 783 786 789 792 795 798 800 803 805 807 808 810 812 814 816 818 820 821 823 825 826 827 829 830 831 833 834 835 836 837 838 839 840 841 843 844 845 846 847 848 848 848 849 850 850 851 852 853 855 857 858 858 858 858 858 859 859 859 859 859 858 858 857 856 855 854 853 852 850 849 847 844 842 840 838
749 752 756 759 762 765 769 773 776 779 782 785 788 791 794 797 800 802 804 806 808 810 812 814 815 817 819 820 822 824 825 827 828 830 831 832 833 834 835 836 837 838 839 840 842 843 845 846 846 848 848 848 849 850 850 851 852 853 855 856 857 858 857 858 858 859 859 859 859 858 858 857 856 855 855 854 853 852 850 849 847 845 842 840 837
747 751 755 758 761 764 767 771 775 778 781 784 787 790 793 796 798 801 803 805 807 809 811 813 815 816 818 819 821 822 824 826 828 829 830 831 832 833 834 836 836 837 839 840 841 843 844 845 846 847 847 847 848 849 850 851 852 853 855 856 857 857 857 858 858 859 859 859 858 858 857 856 855 854 854 854 853 851 850 849 847 845 843 841 838
746 750 753 757 760 763 766 770 774 777 779 782 786 789 792 794 797 800 802 804 806 808 810 812 814 816 817 818 820 822 823 825 827 828 830 831 832 833 834 835 836 837 838 839 841 842 843 844 845 846 847 847 848 849 850 851 851 852 854 856 857 857 857 857 858 858 858 858 858 857 856 856 854 854 854 853 852 851 849 848 847 846 844 842 840
744 748 752 756 758 761 765 768 772 775 778 781 785 788 791 793 795 798 800 802 805 807 809 811 813 815 816 818 819 821 823 825 826 828 829 830 832 833 834 835 835 837 838 839 840 842 843 844 844 845 846 846 847 848 849 850 851 852 854 855 856 856 856 857 858 858 858 858 857 857 856 855 854 853 853 852 851 850 848 847 846 845 844 842 840
743 747 750 754 757 761 764 767 771 774 777 781 784 787 789 791 794 797 799 801 804 806 808 810 811 813 815 817 819 820 822 824 825 827 828 830 831 833 834 835 835 836 838 839 840 841 842 843 843 844 845 846 846 847 848 850 851 852 853 855 855 856 856 856 857 857 857 857 857 856 855 855 854 853 852 851 850 849 848 846 845 844 843 841 839
742 745 749 753 756 759 763 766 770 773 776 780 783 785 788 790 793 795 797 799 802 804 806 808 810 812 814 815 817 819 821 823 824 826 828 829 831 832 833 834 835 836 838 838 839 841 841 842 843 843 844 845 846 847 848 849 850 851 853 854 854 855 855 855 856 856 856 856 856 855 855 854 853 852 851 851 850 849 847 846 845 844 842 840 838
740 744 748 751 755 758 761 765 769 772 775 779 781 784 786 788 791 793 795 798 801 802 805 807 808 810 812 814 816 818 820 822 823 825 826 828 829 831 832 834 835 836 837 838 839 840 840 841 842 843 843 844 845 846 847 848 849 850 852 853 853 853 854 855 855 855 856 856 855 855 854 853 853 852 851 850 849 848 847 846 844 843 841 839 837
738 742 746 750 754 757 760 763 767 771 774 777 779 782 784 786 789 791 793 796 799 801 803 805 807 809 811 813 815 816 818 820 822 823 825 826 828 829 831 833 834 835 836 838 839 839 840 840 841 842 842 843 844 845 846 847 848 849 850 851 852 853 853 854 854 855 855 855 855 854 854 853 852 851 851 850 849 848 847 845 844 842 840 839 837
737 741 745 749 752 756 759 762 766 769 772 775 777 780 782 785 787 789 791 794 797 800 802 804 806 808 809 811 813 815 817 818 820 822 823 825 826 828 830 831 833 834 836 838 838 838 839 840 840 841 842 842 843 844 845 846 847 848 849 850 851 851 852 853 853 854 854 854 854 853 853 852 851 851 850 849 848 847 846 844 843 841 840 838 837
736 740 744 748 751 754 757 761 764 767 770 773 776 778 781 783 786 788 791 793 796 799 801 803 805 807 809 810 811 813 815 817 819 821 822 824 825 827 829 830 831 833 834 835 837 837 838 839 839 840 841 841 842 843 844 845 846 847 848 849 850 850 851 852 852 852 852 852 852 852 852 851 850 850 849 849 848 847 846 844 843 841 840 838 837
735 740 744 747 750 752 755 759 762 765 768 772 775 778 780 783 785 788 790 793 795 798 800 802 804 806 808 809 811 813 814 816 818 820 821 823 824 826 827 828 829 831 832 833 834 836 837 838 838 839 840 840 841 842 843 844 844 845 847 847 848 849 850 850 851 851 851 851 851 851 851 850 849 849 848 848 847 846 845 844 843 841 839 838 836
735 740 743 746 749 751 755 758 761 764 767 771 775 778 780 782 785 787 790 792 795 797 800 801 803 805 806 808 810 812 814 815 817 819 820 822 823 824 825 826 828 830 831 832 833 834 835 836 837 838 838 839 840 841 841 842 843 843 844 846 847 847 848 849 849 849 849 850 850 850 849 849 848 847 847 846 846 845 844 843 842 841 839 837 836
735 739 743 745 748 751 754 758 760 764 767 770 774 777 779 782 784 787 789 792 794 797 799 801 802 804 806 807 809 812 814 815 816 817 819 820 821 822 824 825 826 829 830 831 832 832 833 834 835 836 836 837 838 838 839 840 841 841 842 843 844 845 846 847 847 847 848 848 848 848 847 847 846 846 845 845 844 843 843 842 841 840 839 837 835
733 738 742 745 748 751 754 757 760 763 766 770 773 776 779 782 784 786 789 791 794 796 798 799 801 802 804 806 808 811 813 814 815 816 817 819 820 821 822 823 825 827 828 829 830 831 832 833 833 834 835 835 836 836 837 838 838 839 840 841 842 842 843 844 844 845 845 846 846 846 846 845 845 844 844 843 842 842 841 840 840 839 838 836 835
733 737 741 744 747 750 753 757 760 763 766 769 772 776 778 781 783 786 788 790 793 794 796 797 799 800 802 804 806 809 810 812 813 815 816 818 819 820 821 822 823 825 826 827 829 830 831 831 832 833 833 833 834 835 835 836 837 837 838 838 839 840 840 841 841 842 843 843 843 844 844 843 843 842 842 842 841 841 840 839 839 838 837 835 834
732 736 740 743 746 750 753 756 759 762 765 768 771 774 777 780 782 785 787 788 790 792 794 796 797 799 801 803 804 806 808 810 811 813 814 816 817 818 819 820 821 822 824 825 826 828 828 829 831 832 832 832 833 833 834 834 835 835 836 836 836 837 837 838 839 839 840 840 841 842 842 842 842 841 841 840 840 839 839 838 837 837 835 834 832
731 735 738 742 745 748 752 755 759 762 764 767 769 772 775 777 780 782 784 786 788 790 792 794 796 798 799 801 802 804 806 808 809 811 812 814 815 816 817 818 820 821 822 823 824 825 826 827 829 830 830 831 831 832 832 833 833 834 834 834 834 834 834 835 836 836 837 838 839 840 840 840 840 840 840 839 839 838 837 837 836 835 834 832 831
730 733 737 740 743 747 750 754 757 761 763 766 769 771 773 775 777 779 781 784 786 788 790 792 793 795 797 798 800 802 804 807 809 810 810 811 812 813 814 816 818 820 821 822 822 823 824 826 827 828 828 829 830 830 831 831 832 832 832 832 832 832 832 833 834 834 835 836 837 838 838 839 839 839 838 838 837 837 836 835 834 833 832 831 830
729 732 735 738 742 745 748 751 755 758 762 765 767 769 771 773 775 776 778 780 783 785 788 789 790 792 794 797 799 801 803 806 807 807 808 808 809 811 812 814 816 817 819 820 822 822 823 824 825 825 826 826 827 828 829 829 830 830 830 830 830 830 831 832 832 832 833 834 835 836 836 837 837 837 837 837 836 835 835 834 833 832 831 830 829
729 732 734 737 740 744 747 750 753 756 760 763 765 767 769 770 772 775 777 778 780 782 784 785 787 789 792 794 796 798 800 801 801 803 805 807 808 809 810 811 812 814 817 819 821 821 822 822 822 823 823 824 825 826 826 827 827 828 828 828 829 829 830 830 830 831 832 833 833 834 834 835 835 835 835 835 834 834 834 833 832 831 830 829 828
729 732 734 737 740 742 746 749 752 755 758 760 763 766 768 770 772 774 776 778 779 781 782 783 785 788 790 792 793 794 796 797 799 802 804 805 806 807 808 809 811 813 815 818 820 820 821 821 821 821 821 822 822 823 824 825 825 826 826 827 827 828 829 829 829 829 830 831 831 832 832 833 833 833 833 833 833 832 832 831 830 830 829 828 826
728 731 734 736 739 742 745 748 751 754 757 759 761 764 767 770 772 774 776 778 779 781 782 783 785 787 789 791 792 794 794 796 799 801 802 803 805 806 807 808 810 811 813 816 817 818 818 819 819 820 820 820 820 821 822 823 823 824 824 825 826 827 827 827 827 828 828 829 829 830 830 831 831 831 831 831 831 831 830 830 829 828 827 826 825
727 731 733 736 739 742 745 747 750 753 756 759 761 763 766 769 771 774 775 777 779 780 782 783 785 786 788 790 792 793 793 795 797 799 800 801 803 804 805 807 808 810 812 813 814 815 816 817 818 818 819 819 819 819 820 821 821 822 823 824 824 824 825 825 826 826 826 826 827 827 828 828 829 829 829 829 829 829 828 828 827 826 825 824 823
726 730 733 736 739 742 745 747 750 752 755 757 759 761 763 765 768 770 773 775 777 779 781 782 783 785 787 789 790 791 792 794 795 797 798 799 801 802 803 805 806 808 809 811 812 813 814 815 816 816 817 816 817 817 818 819 820 821 822 822 822 822 823 824 824 824 824 824 825 825 825 826 826 826 827 827 827 827 826 826 825 824 823 822 821
725 728 731 734 738 741 744 747 749 752 754 756 758 760 761 763 765 768 771 773 775 777 779 780 782 784 786 787 789 790 791 792 794 795 796 797 798 800 801 802 804 806 807 808 809 810 811 812 813 814 814 814 815 816 816 817 818 819 820 820 820 821 821 822 821 821 821 822 822 822 823 823 824 824 824 825 825 825 824 824 823 822 821 821 820
725 727 730 733 736 739 742 745 747 750 752 754 756 758 760 762 764 765 767 769 771 773 776 778 780 782 784 786 787 788 789 790 791 792 793 794 796 797 798 800 801 803 804 805 806 806 808 808 809 810 811 812 813 813 814 815 817 817 818 818 819 819 820 819 819 819 819 819 820 820 821 821 821 822 822 822 822 822 822 821 821 820 819 819 818
726 728 731 733 736 738 740 743 746 748 750 752 755 757 758 760 762 763 765 767 769 772 775 777 779 781 782 784 785 786 787 788 789 789 791 792 793 794 795 796 798 799 800 801 802 803 804 804 805 807 808 809 810 811 812 813 815 816 816 817 817 818 818 817 816 816 816 817 818 818 818 819 819 819 819 820 820 820 820 819 819 818 817 817 816
726 728 731 734 736 738 741 743 746 748 750 752 755 757 758 760 761 763 765 767 769 771 773 775 777 779 780 781 783 783 784 785 786 787 789 790 791 791 791 792 794 795 796 797 798 800 800 801 802 803 805 806 807 809 810 811 812 814 814 815 816 816 816 815 814 814 814 815 815 816 816 817 817 817 817 818 818 818 817 817 816 816 815 815 814
726 728 731 733 736 739 741 744 747 749 751 753 755 756 758 759 761 762 764 766 768 770 772 773 775 776 777 778 780 781 782 783 784 785 786 787 788 788 789 789 791 792 793 794 796 797 798 799 800 801 802 803 805 806 807 809 810 811 812 813 813 814 814 813 812 812 813 813 813 814 814 814 815 815 815 815 815 815 815 815 814 814 813 812 812
726 729 731 734 736 738 741 744 746 748 750 752 754 755 757 758 760 761 763 765 767 768 770 771 773 774 774 776 778 779 780 780 781 781 783 784 785 786 787 787 788 789 791 792 794 795 796 796 797 798 800 801 802 803 805 806 807 808 809 810 811 811 812 812 811 811 811 811 811 812 812 812 812 813 813 813 813 812 812 812 812 811 810 810 809
727 729 731 733 736 738 740 742 744 746 748 750 752 753 755 756 758 759 761 763 765 766 768 769 769 770 772 774 776 777 778 778 779 780 781 782 783 784 785 785 786 787 789 790 791 792 793 794 795 796 797 798 800 801 802 803 804 805 806 807 808 808 809 809 809 809 809 809 809 810 810 810 810 810 810 810 810 810 810 809 809 809 808 807 807
727 729 731 733 735 738 739 741 743 745 747 749 750 752 753 754 756 757 759 761 763 764 766 767 768 769 771 772 774 775 777 777 778 778 779 780 781 782 783 783 784 785 787 788 789 790 791 792 793 793 794 796 797 798 800 801 802 803 804 804 805 805 806 806 807 807 807 807 807 807 808 808 808 808 808 808 808 808 807 807 807 806 806 805 805
726 729 731 733 735 737 739 741 742 744 746 748 749 751 752 753 754 756 758 759 761 763 764 765 766 768 769 771 772 774 776 776 776 777 778 779 780 780 781 782 783 783 784 786 787 788 789 790 791 792 793 794 795 796 797 798 800 801 801 802 802 802 803 803 804 804 804 804 805 805 805 806 806 806 805 805 805 805 805 805 804 804 803 803 802
727 729 731 733 735 736 738 740 742 744 746 747 748 749 751 752 753 755 756 758 759 761 762 764 765 766 768 769 771 773 774 774 775 775 776 777 777 778 779 780 781 781 783 784 785 786 787 788 789 790 791 792 793 793 795 796 797 798 799 799 799 799 799 800 801 801 802 802 803 803 804 804 803 803 803 803 803 803 802 802 802 801 801 800 800
727 729 731 733 735 736 738 740 741 743 744 745 747 748 749 751 752 754 755 757 758 759 761 762 764 765 766 767 769 771 772 772 773 773 774 774 775 776 777 778 779 780 781 781 782 783 784 785 786 787 789 789 790 791 792 793 794 795 796 797 797 797 797 797 798 799 800 801 801 802 802 801 801 801 801 800 800 800 800 799 799 798 798 798 797
727 729 731 733 735 737 739 740 742 743 744 745 746 747 748 749 751 752 754 755 756 758 759 761 762 763 764 765 766 767 769 770 771 771 772 772 773 774 775 776 776 777 778 779 780 781 782 783 784 785 786 787 787 788 789 789 791 792 793 794 795 795 795 796 796 797 798 799 799 800 799 799 799 799 798 798 798 797 797 796 796 796 796 795 795
727 729 730 732 734 736 738 740 742 743 743 744 745 745 746 748 749 750 752 754 755 756 758 759 760 761 762 763 764 765 766 768 769 769 770 770 770 771 772 773 774 774 775 776 777 778 779 780 781 782 783 784 785 786 786 787 788 790 791 792 793 793 793 793 794 794 795 796 797 797 797 797 797 797 796 795 795 794 794 794 794 794 794 793 792
726 728 730 731 733 735 737 739 740 741 742 743 743 744 745 746 748 749 751 753 754 755 757 758 759 759 760 761 762 763 764 765 766 767 767 768 768 769 770 771 772 772 773 774 775 776 776 777 778 779 780 782 783 784 785 785 787 788 789 790 790 790 790 791 791 792 793 794 794 795 795 795 794 794 793 793 792 792 792 792 792 791 791 791 790
726 727 729 731 733 734 736 737 739 740 740 741 742 743 744 746 747 748 750 751 753 754 755 756 756 757 758 759 760 761 762 763 764 765 765 765 766 767 768 769 770 771 772 772 773 774 774 775 776 777 778 779 780 781 782 783 785 786 786 787 787 788 788 788 789 790 790 791 791 792 792 792 792 791 791 791 790 790 790 790 789 789 789 789 788
725 727 729 730 732 733 734 735 737 738 739 740 741 742 743 745 746 747 749 750 751 752 753 754 754 755 756 757 758 759 760 761 762 762 763 764 764 766 767 767 768 769 770 771 771 772 773 774 774 775 776 777 778 779 780 781 782 783 783 784 785 785 785 786 786 787 788 788 788 788 789 789 789 789 789 788 788 788 788 787 787 787 787 787 787
724 726 728 730 731 732 734 735 736 737 738 740 740 741 742 743 744 746 747 748 749 750 751 752 753 754 754 755 756 757 758 759 759 760 761 762 763 764 765 765 766 767 768 769 770 770 771 772 773 773 774 775 776 777 778 779 780 781 781 782 782 783 783 783 784 785 785 785 786 786 786 786 786 786 786 786 786 786 786 786 786 786 786 786 786
724 726 727 729 730 732 733 734 736 737 738 739 740 741 741 742 743 744 745 746 747 748 750 750 751 752 753 753 754 755 756 757 758 758 759 760 761 762 763 764 764 765 766 767 768 769 770 770 771 772 773 774 775 776 776 777 778 779 779 780 780 780 781 781 782 782 783 783 783 783 784 784 784 784 783 783 783 784 784 784 785 785 785 785 785
Wind_Speed
32 31 32 32 33 33 33 33 33 33 33 32 31 30 27 26 29 33 33 31 29 27 26 24 23 22 22 22 22 22 22 22 23 24 24 24 23 23 23 22 23 24 24 23 21 21 22 21 19 16 16 16 16 16 16 15 15 15 13 12 14 12 12 13 9 5 7 9 10 11 12 13 15 18 21 23 24 24 24 23 21 20 21 21 22
32 31 32 33 33 33 33 33 33 32 32 31 30 28 26 28 32 34 33 32 29 28 27 24 22 23 24 24 23 23 23 24 24 24 25 25 24 24 24 24 25 25 24 22 20 20 19 19 17 15 15 16 16 15 15 14 14 14 13 12 13 12 10 10 8 5 6 9 10 11 12 14 15 18 20 23 25 24 25 25 23 22 22 23 24
32 31 32 33 33 33 33 33 33 32 31 31 29 27 27 31 34 34 33 32 30 28 26 23 23 24 25 25 24 24 24 25 25 25 25 25 25 26 25 25 25 25 24 22 21 19 18 18 17 16 15 16 16 15 14 13 12 12 12 12 11 11 8 7 7 6 7 9 11 12 13 13 15 18 20 22 24 25 26 27 26 24 23 23 25
32 32 32 32 33 33 34 33 33 32 32 31 29 28 30 33 34 34 33 32 30 28 24 22 24 26 27 26 25 25 25 25 25 24 24 25 26 26 25 24 23 23 23 22 21 19 18 17 16 15 15 15 14 13 12 11 11 10 10 10 10 9 8 7 7 7 8 10 11 12 12 12 14 17 20 21 24 25 26 26 27 27 24 23 24
32 33 33 33 33 34 34 33 33 33 32 31 29 29 32 34 34 33 33 32 30 27 24 24 26 27 27 27 26 26 25 25 25 24 24 24 25 25 25 23 22 21 21 21 20 19 18 17 16 15 14 14 13 12 10 10 9 8 8 9 9 8 7 6 6 7 9 10 10 10 11 12 14 18 20 21 24 26 27 27 28 28 27 24 24
32 33 33 33 34 34 34 34 34 33 33 31 30 31 33 34 34 33 33 31 29 27 26 26 27 28 28 27 27 26 26 26 25 25 25 24 25 25 24 22 21 20 19 19 20 20 19 18 17 16 16 15 14 12 10 9 9 8 7 7 7 6 5 5 6 7 8 9 9 10 11 12 14 17 19 20 22 24 27 28 29 29 29 27 25
33 33 34 34 33 34 35 35 35 34 33 32 30 32 33 34 34 34 32 30 28 28 27 27 27 28 28 27 26 26 26 26 26 25 25 24 25 25 23 22 21 20 19 19 19 19 19 18 17 16 15 15 13 11 9 8 8 8 7 6 6 5 5 6 6 7 7 8 9 10 11 11 13 14 16 18 20 21 23 25 26 28 30 29 27
34 34 34 34 34 34 34 34 35 34 33 32 31 33 34 34 34 34 31 29 28 28 27 27 27 27 27 27 26 26 26 26 26 26 26 25 25 24 23 23 22 21 20 19 19 18 17 16 15 14 13 13 11 10 8 7 8 9 8 7 7 6 7 7 7 7 7 8 9 10 10 10 11 12 13 17 19 21 22 21 23 26 28 28 25
33 34 34 34 35 35 33 33 33 33 32 32 32 34 34 33 33 32 30 29 28 27 27 26 27 27 27 27 27 27 27 27 27 27 26 26 25 24 24 24 23 23 22 20 19 17 15 14 12 11 12 12 11 10 8 8 10 11 11 9 8 8 9 8 8 8 8 8 9 9 9 9 10 11 13 16 18 20 22 21 22 24 26 28 25
33 33 33 33 34 34 34 33 33 33 32 31 32 34 34 33 32 32 30 29 28 27 27 27 27 27 28 28 28 27 27 27 27 27 26 26 25 25 25 25 24 24 23 22 20 17 14 12 11 10 10 12 12 11 10 11 12 13 12 10 9 9 9 9 9 8 8 8 7 7 8 9 10 12 14 16 19 20 22 22 22 22 24 26 25
33 33 32 32 33 34 34 34 33 33 32 31 32 34 33 32 32 32 31 30 28 27 27 28 28 28 28 29 29 28 27 27 27 27 26 25 26 27 27 26 25 24 23 22 20 17 14 13 11 11 11 13 14 13 12 13 13 12 11 10 8 8 9 9 8 7 7 6 5 5 7 9 11 14 14 16 19 20 20 19 19 20 21 19 18
33 33 32 32 33 34 34 34 34 33 32 31 33 34 32 32 32 32 32 31 29 28 28 29 29 28 28 29 29 28 27 27 27 27 26 26 27 27 27 26 25 24 23 21 19 16 15 14 14 14 13 14 15 15 14 13 12 11 9 7 6 5 5 6 6 6 6 5 5 6 7 9 12 15 16 17 19 18 16 17 17 18 18 17 17
33 32 32 32 33 34 35 34 33 32 31 31 33 33 31 31 33 33 32 31 29 29 29 30 30 29 29 29 29 28 27 27 27 27 26 27 27 27 26 26 24 23 22 20 18 16 15 15 17 16 15 15 15 15 15 13 12 10 8 5 3 1 1 1 2 4 5 6 6 6 7 10 13 17 18 18 18 15 13 15 17 16 17 18 19
33 32 32 33 34 34 34 34 33 31 31 31 33 32 31 32 33 34 33 31 30 30 30 30 30 30 30 29 29 28 27 27 27 27 27 27 26 25 25 24 24 23 21 19 17 15 14 16 19 18 17 16 16 15 14 13 11 8 6 4 2 1 2 4 4 3 4 6 7 7 8 11 15 17 16 14 12 11 12 15 16 16 17 19 20
32 31 31 33 34 34 34 33 32 31 31 32 32 31 30 32 33 33 33 32 31 31 31 31 31 30 30 30 29 28 28 27 27 27 27 27 26 25 25 24 23 21 19 18 17 15 13 16 18 17 17 16 15 15 13 11 10 7 5 4 3 2 3 5 5 4 4 6 7 7 9 13 16 14 10 7 8 10 12 14 14 15 17 20 21
31 32 32 33 34 35 35 33 32 31 32 32 32 30 30 32 33 33 33 32 31 31 32 32 31 31 31 30 30 29 28 28 27 27 27 26 26 25 25 24 23 20 18 18 17 14 13 15 16 16 16 15 14 12 11 10 9 7 6 5 4 3 4 4 5 4 5 6 6 8 10 13 13 9 6 8 10 12 12 12 13 15 18 19 20
31 33 33 34 34 35 35 34 32 32 33 33 32 31 31 32 33 34 33 32 31 31 32 31 31 31 31 31 30 30 29 28 28 28 27 27 26 26 25 24 22 20 19 19 17 15 14 14 14 14 15 13 12 10 7 7 7 7 7 6 4 3 3 4 3 3 5 6 7 8 9 10 9 5 6 10 12 12 11 11 13 15 17 16 15
31 32 33 35 35 34 34 34 34 33 33 33 32 31 31 32 34 34 33 32 31 31 31 30 30 30 31 31 31 30 29 29 28 28 28 27 27 26 25 23 22 20 20 19 19 18 16 14 13 13 12 11 10 8 6 6 7 9 9 7 4 3 4 4 3 4 5 5 6 6 6 7 6 3 6 10 12 10 9 11 13 14 16 15 13
33 33 33 35 35 34 35 35 35 34 34 33 33 32 30 31 32 32 32 31 31 30 30 30 29 29 30 31 31 30 29 28 28 28 28 27 27 26 24 23 23 22 22 22 21 21 19 16 14 13 12 12 11 8 7 6 7 10 11 8 6 5 5 5 5 4 3 3 3 4 4 5 4 2 5 10 11 9 8 10 13 14 15 16 15
34 34 33 34 34 35 36 36 35 35 35 33 32 30 29 29 30 30 30 29 29 29 29 29 28 29 30 30 30 29 28 28 28 28 28 27 27 26 24 25 25 24 24 23 22 22 21 18 15 13 13 13 12 9 8 7 8 11 12 10 8 7 6 6 5 3 2 2 3 5 5 5 3 1 4 9 9 7 7 10 12 14 15 16 16
33 34 34 33 34 35 35 35 35 34 33 32 30 28 28 29 30 30 29 28 27 27 26 27 27 28 29 29 29 28 28 27 27 28 28 27 27 26 25 25 26 25 24 23 22 23 22 20 17 15 14 13 13 12 11 9 9 11 13 12 10 9 7 6 5 4 4 4 5 5 5 4 2 1 4 7 7 6 8 9 11 13 14 15 16
34 34 34 34 34 34 34 34 33 32 31 31 29 27 27 29 30 29 28 27 27 26 25 25 25 26 27 29 28 27 27 26 26 28 28 27 27 26 25 25 26 26 24 24 23 22 22 20 19 17 16 16 16 15 14 12 10 11 12 13 12 9 8 7 6 6 6 6 6 6 5 4 2 1 4 7 6 6 8 9 10 12 12 14 15
35 34 34 33 33 32 32 32 31 30 30 31 30 27 27 28 29 29 28 27 26 26 25 25 25 25 26 28 27 26 26 27 27 27 28 28 27 26 25 25 26 26 25 25 24 23 23 22 21 19 18 18 17 17 17 15 13 11 11 12 12 10 9 8 8 8 8 8 8 7 5 3 2 2 4 6 6 6 8 10 11 11 11 14 14
34 33 33 32 30 30 31 31 30 30 30 31 29 27 26 27 28 28 28 28 27 26 26 26 25 25 26 27 27 26 27 28 28 27 27 27 27 27 26 25 25 25 26 25 24 23 24 23 22 21 19 19 18 17 17 16 15 12 11 12 12 11 11 10 9 9 10 10 10 8 7 5 4 4 5 6 6 7 8 10 11 11 11 13 13
33 32 31 30 29 29 30 30 29 29 29 30 29 28 27 27 28 28 29 30 29 27 26 26 26 26 26 26 27 27 27 28 28 27 27 27 28 29 29 26 23 23 25 25 24 24 24 23 22 22 21 21 19 18 18 17 16 14 13 13 13 13 13 12 11 12 13 13 11 10 9 7 5 5 6 6 7 8 9 10 10 10 12 13 13
31 31 30 29 29 29 28 28 27 27 28 29 30 31 31 30 30 30 30 30 29 28 27 26 25 25 26 26 26 27 27 27 26 26 26 27 29 31 32 28 23 21 22 24 25 25 23 22 21 22 23 23 22 21 19 18 17 16 15 15 15 16 15 14 14 14 15 15 13 12 11 9 8 7 8 8 8 8 9 11 11 11 12 13 14
31 30 29 28 28 28 28 27 27 27 27 28 29 30 32 32 32 32 31 30 28 28 28 27 27 26 26 26 26 26 26 25 24 23 24 26 29 32 33 31 26 23 21 22 23 23 21 21 20 20 22 24 24 22 20 18 18 17 17 17 18 17 16 16 15 16 17 16 16 15 15 14 13 12 10 9 9 9 10 11 12 11 12 13 14
31 28 28 28 28 28 29 29 29 29 29 30 31 32 33 33 33 33 33 33 31 30 30 30 30 29 28 27 25 24 24 24 24 25 25 26 28 31 34 33 31 29 25 23 21 18 17 19 21 21 21 23 24 23 21 20 20 20 19 20 20 19 18 17 17 18 18 18 18 18 18 18 17 16 13 11 11 10 11 12 12 11 12 13 14
29 27 28 29 28 29 30 31 32 31 31 31 32 32 33 34 34 34 34 34 34 33 32 32 32 31 30 29 27 26 26 27 28 27 26 25 26 29 33 36 37 36 32 26 21 16 14 16 20 21 21 23 25 25 23 22 22 21 21 21 22 21 20 19 18 19 19 19 20 20 19 19 18 16 14 13 13 12 12 13 12 12 13 14 15
27 26 27 28 29 30 31 31 31 31 31 30 29 28 29 30 31 32 32 33 34 34 33 33 32 31 30 30 29 28 27 27 27 25 25 26 26 27 30 34 37 39 36 30 23 19 16 15 18 20 22 24 26 26 25 24 23 23 22 23 23 23 21 19 18 18 18 19 20 19 19 19 17 15 13 13 14 13 13 14 13 13 14 15 16
26 25 26 27 29 31 31 30 29 29 29 29 29 27 25 24 25 27 28 29 31 32 31 31 30 29 29 28 27 27 27 26 25 24 25 27 27 26 27 30 33 37 37 33 28 24 22 20 19 21 23 24 26 27 26 25 25 24 23 23 23 22 21 19 18 17 18 19 20 20 20 20 19 16 14 13 13 13 13 13 13 14 15 16 18
27 25 26 28 29 30 30 29 29 28 27 26 27 27 25 23 21 22 24 25 27 28 28 28 27 26 26 25 24 25 26 26 25 25 25 27 28 27 26 27 30 34 35 34 31 29 27 25 24 24 24 25 27 27 26 26 26 24 23 23 23 22 20 18 16 16 17 18 19 19 20 20 20 19 17 15 13 13 14 13 13 14 16 17 18
29 27 27 28 29 28 28 28 28 28 28 28 28 28 28 26 24 23 22 23 24 24 24 25 24 24 23 22 23 25 26 25 23 24 24 26 28 27 26 27 30 31 32 32 31 30 29 28 28 28 28 28 29 28 27 27 26 23 22 22 22 21 18 16 16 16 17 19 21 21 19 20 21 21 20 18 15 14 15 14 13 14 15 16 16
30 30 30 31 30 28 28 28 28 27 28 28 28 28 28 27 26 25 23 21 20 21 21 22 22 22 22 23 23 25 26 24 21 21 23 25 26 27 28 28 29 29 29 29 31 31 31 30 30 30 30 31 31 30 29 28 25 22 21 22 21 19 17 17 17 18 18 18 19 19 18 19 21 22 22 20 17 16 16 14 12 12 12 14 15
29 31 33 34 33 31 30 30 30 29 28 28 29 29 28 28 27 28 27 25 23 22 21 22 22 22 22 22 22 23 25 24 22 21 23 24 25 27 28 27 26 26 27 28 30 32 32 33 33 32 32 31 31 31 30 29 25 22 22 22 20 19 19 19 19 19 20 18 16 14 14 16 17 19 20 18 15 16 16 14 11 11 12 13 14
28 29 31 31 30 30 31 31 30 30 29 29 29 29 27 26 27 26 26 24 23 21 21 22 23 22 22 23 22 22 21 21 20 21 23 25 26 26 27 27 27 28 29 30 31 32 33 34 34 33 32 31 30 30 30 29 26 24 23 22 20 18 18 18 17 18 19 18 15 13 12 12 13 14 15 14 13 15 15 13 11 12 13 14 14
27 28 29 29 28 28 28 27 27 26 26 25 25 25 24 23 24 23 22 22 22 22 22 22 22 22 22 23 23 22 20 19 19 21 24 28 28 27 27 29 30 31 31 32 32 33 33 33 34 33 32 30 30 29 28 27 26 25 24 22 19 17 17 16 15 15 16 16 15 13 12 11 12 12 13 14 15 15 15 14 13 14 15 15 15
26 27 28 28 26 25 25 24 23 23 22 22 22 23 23 22 22 22 22 23 23 23 22 22 22 22 23 24 23 21 20 20 20 22 26 30 31 29 28 30 31 31 31 32 32 32 33 33 33 32 31 31 30 30 29 28 28 27 25 22 20 19 17 14 12 13 15 14 13 12 11 11 12 13 14 16 16 16 15 15 15 16 17 18 17
24 24 24 25 24 23 23 23 23 23 23 22 21 22 22 22 22 23 23 23 23 23 23 23 24 25 26 25 23 21 20 20 21 23 26 29 31 30 29 29 30 31 30 30 30 30 30 31 31 30 30 30 30 29 29 28 28 28 26 24 22 21 19 16 13 13 13 12 11 11 11 11 12 13 14 16 16 17 17 17 16 16 17 17 17
23 22 21 22 21 21 22 23 23 23 24 23 23 23 24 24 24 25 24 23 23 24 24 25 27 29 28 26 24 23 22 22 23 23 24 26 28 28 29 29 30 31 30 29 28 28 28 29 29 29 29 29 28 28 27 26 25 25 25 24 23 23 23 20 17 16 15 14 13 12 12 12 12 12 14 15 16 16 16 16 15 15 16 16 17
22 21 21 21 21 21 22 23 24 24 25 25 24 24 25 26 26 25 24 23 23 25 26 26 28 28 27 26 26 25 24 24 25 24 24 25 26 27 29 29 30 30 30 30 29 27 27 28 28 28 27 27 27 26 25 24 23 23 24 25 26 26 27 25 23 20 18 16 15 14 13 13 13 14 15 16 15 15 16 16 16 16 17 17 16
23 22 22 22 21 21 22 23 24 24 24 24 24 24 25 26 26 25 24 23 24 25 25 26 27 27 27 27 26 25 25 26 25 24 23 24 25 27 28 29 29 30 30 30 29 28 27 27 27 27 26 26 26 25 24 24 24 24 25 25 26 27 27 25 23 20 17 15 15 14 13 13 14 15 16 16 16 16 17 18 19 19 19 17 14
22 22 22 21 21 21 21 23 23 23 23 24 25 26 25 24 24 24 24 24 25 25 26 26 26 27 27 27 26 26 26 26 24 23 22 23 24 26 27 28 29 30 30 30 29 28 27 26 26 26 26 26 25 25 24 24 24 25 25 24 23 22 21 20 20 18 16 15 14 14 13 13 14 15 16 17 17 18 19 20 20 20 18 15 12
20 21 21 21 21 21 22 22 23 24 24 25 25 25 24 23 22 23 24 24 26 27 27 26 26 26 27 27 26 27 27 26 25 24 23 23 24 25 26 27 28 29 30 30 30 29 28 27 27 26 26 25 24 23 22 21 20 20 20 19 18 16 14 14 14 15 16 15 14 14 14 14 14 16 17 18 19 19 20 21 21 19 16 13 12
22 23 23 22 22 22 23 23 23 23 23 23 22 22 22 21 21 22 24 25 26 26 27 26 25 26 27 26 26 27 27 27 26 25 24 24 24 24 24 25 26 27 28 28 28 28 28 27 27 26 25 23 21 20 18 17 16 16 16 16 16 15 15 13 11 11 13 15 14 13 14 14 16 17 18 18 18 19 20 21 19 15 13 12 12
24 24 24 23 23 23 22 22 22 22 21 21 21 21 21 21 21 22 23 24 24 24 25 25 25 26 26 26 26 26 26 26 26 25 24 24 24 23 22 23 24 25 24 23 22 22 23 24 25 25 25 23 20 18 16 16 16 18 19 19 18 17 17 15 13 12 12 13 12 12 14 16 17 18 18 17 16 17 17 16 13 12 12 12 12
24 24 23 22 22 22 22 21 21 20 19 19 19 20 20 20 20 20 21 22 22 22 23 23 25 26 27 27 27 27 26 26 25 24 23 23 23 22 21 22 22 22 21 19 18 17 18 19 21 23 23 22 20 19 18 17 18 20 20 19 17 15 14 13 13 12 11 12 13 15 17 17 17 17 16 14 14 13 12 11 11 11 12 11 9
23 22 22 21 21 21 21 20 20 19 19 19 19 19 19 19 19 20 20 21 21 21 22 23 25 26 27 27 27 27 26 25 24 23 23 23 22 21 20 21 22 20 18 17 16 16 15 16 18 20 21 22 22 21 21 20 20 19 17 16 15 15 13 13 13 13 14 16 17 17 18 17 16 15 14 13 12 12 12 12 12 12 10 8 6
22 22 21 21 20 19 19 18 19 19 19 19 19 19 19 19 20 20 21 21 21 22 22 23 24 25 26 26 25 24 22 22 21 21 22 22 21 20 19 20 21 19 17 16 16 16 16 15 16 16 18 19 20 20 20 18 17 15 14 14 15 15 14 13 14 16 17 18 18 17 17 16 15 14 13 13 13 13 13 13 12 9 7 6 5
22 21 20 19 19 18 17 16 17 17 18 18 19 19 20 20 20 21 21 21 21 22 22 23 23 23 23 23 22 20 20 20 19 18 18 19 19 19 19 20 20 18 16 15 16 16 17 16 16 15 15 15 15 15 15 14 13 12 12 13 14 14 14 15 16 17 17 17 17 16 15 13 12 12 13 13 13 13 12 10 9 7 6 5 4
21 20 19 17 17 17 16 16 17 17 17 18 18 19 19 20 20 21 21 21 21 21 21 21 22 22 21 21 20 19 19 18 17 16 16 16 17 18 19 19 19 19 17 17 17 17 17 17 16 15 14 13 12 12 12 12 13 13 13 13 13 14 15 16 17 17 17 16 14 13 11 11 11 12 12 11 10 9 8 8 7 6 5 5 4
Wind_Direction
183 181 180 180 180 180 180 181 183 185 184 184 185 185 187 189 188 184 181 182 184 185 187 187 188 188 185 182 179 178 177 173 172 171 168 164 161 159 159 159 153 147 144 141 138 138 134 131 128 128 133 132 126 121 113 105 98 93 96 106 100 93 95 95 91 82 64 51 49 52 38 21 17 20 24 27 28 31 34 35 36 34 31 29 27
183 180 177 179 180 179 179 180 183 183 182 183 184 185 187 188 185 182 181 183 186 188 188 187 189 187 183 180 179 179 177 174 172 172 169 165 162 161 161 159 154 149 146 143 141 140 138 135 130 128 133 133 128 123 118 114 110 103 100 103 101 92 89 93 92 79 62 58 56 50 35 23 22 26 29 29 27 27 29 32 34 33 30 29 27
183 180 177 177 178 177 177 179 181 181 181 181 183 185 187 185 183 182 182 184 187 188 189 188 188 185 181 180 180 179 178 176 175 174 172 168 165 164 165 162 158 155 152 149 146 145 142 136 133 133 134 130 124 123 121 119 118 112 106 106 106 98 90 94 98 90 77 67 56 44 33 28 28 30 32 31 28 26 27 27 29 31 30 28 26
182 180 178 177 176 175 176 179 180 180 180 181 182 185 185 182 182 183 183 184 186 187 190 189 186 183 181 181 181 180 179 177 177 177 176 173 169 167 167 166 163 161 158 154 152 151 147 142 140 142 141 134 126 125 124 124 124 120 114 113 113 106 97 96 96 96 93 78 60 45 36 34 36 33 30 29 27 26 25 23 23 25 27 28 25
180 179 178 176 175 175 176 178 180 180 180 180 183 184 183 181 181 183 184 184 185 187 189 188 185 184 183 183 182 182 181 180 178 178 178 175 172 168 167 165 163 161 159 157 157 157 155 150 149 154 156 147 137 134 132 130 132 131 125 121 119 114 108 99 95 101 97 82 65 50 42 43 44 38 30 25 22 21 21 21 20 19 20 24 26
179 177 176 175 174 174 177 179 180 180 180 181 184 184 182 180 181 184 185 185 186 188 188 186 185 186 186 185 184 183 183 182 181 180 178 175 171 168 167 165 162 159 156 157 162 164 162 160 161 167 169 159 147 143 139 135 138 139 136 130 129 129 122 109 106 109 99 81 67 56 50 48 42 37 31 23 17 14 13 14 16 17 15 16 20
178 176 175 174 173 174 177 179 180 180 180 181 183 182 181 180 181 184 186 187 186 187 186 185 187 189 188 187 186 185 184 183 182 181 178 175 172 170 169 166 162 160 158 160 166 169 169 170 169 167 166 161 155 151 144 135 134 138 138 136 140 141 122 107 110 112 98 80 68 60 55 49 38 32 28 21 16 12 7 3 5 9 11 11 12
176 175 175 174 174 175 176 178 179 179 180 181 182 181 180 180 181 184 186 187 186 186 185 185 188 191 191 189 188 186 184 184 184 182 179 177 175 173 171 168 164 162 162 165 169 172 173 174 170 167 168 169 167 164 153 135 131 130 126 126 133 125 105 95 95 95 88 78 71 62 54 46 34 25 18 13 9 4 360 355 355 0 4 7 10
174 174 174 174 175 176 176 176 178 179 180 180 181 181 180 180 182 185 186 186 186 185 186 187 189 190 191 190 188 188 187 186 185 184 181 179 178 175 171 169 167 166 166 169 172 174 175 173 170 172 177 177 177 174 156 135 129 125 119 118 119 110 97 88 82 79 77 73 67 57 43 32 18 6 2 3 357 353 353 353 355 359 0 2 9
172 172 173 174 174 174 174 175 176 177 179 180 181 182 181 182 184 185 186 186 186 186 187 189 190 190 189 189 189 189 190 190 189 187 185 182 179 176 173 172 173 172 170 171 173 175 177 177 174 174 174 172 173 170 152 136 130 125 121 117 111 100 87 78 71 68 69 66 57 39 20 8 0 353 351 354 351 348 350 350 351 356 358 356 2
171 171 172 172 171 170 171 174 175 177 179 181 182 182 181 182 184 185 186 186 186 187 189 191 192 191 190 190 191 192 192 192 192 190 189 187 183 179 177 177 178 178 177 176 176 177 179 181 178 172 165 161 163 159 149 141 135 129 124 115 103 90 76 68 61 55 57 56 42 16 351 344 348 348 347 347 347 346 346 346 346 349 353 349 345
170 171 171 170 169 169 170 172 175 177 179 181 182 181 181 182 183 184 186 187 187 189 191 193 193 193 192 192 193 194 195 195 194 193 191 189 187 183 181 182 183 182 182 182 181 180 180 178 174 168 163 159 157 155 151 147 141 136 130 118 107 88 68 61 51 40 37 27 12 356 340 336 339 342 343 341 341 344 346 348 348 345 347 344 335
169 170 170 169 168 169 170 172 174 177 179 181 181 180 180 182 184 185 186 187 189 191 192 194 194 194 194 194 195 196 197 196 195 194 193 191 189 188 187 187 188 185 184 186 184 183 182 176 170 166 164 161 160 159 158 156 154 150 143 139 138 109 54 20 6 9 9 360 350 343 337 333 331 336 341 338 336 342 345 346 350 348 347 347 341
169 169 168 168 168 170 172 173 174 177 179 181 181 181 181 183 184 186 187 187 189 191 193 194 195 195 196 196 197 197 197 196 195 194 194 192 192 192 191 192 191 189 189 190 187 187 187 180 174 171 169 168 168 168 169 168 167 163 159 164 171 196 259 273 275 298 337 341 331 330 333 329 328 335 345 342 338 346 346 344 349 352 350 350 349
168 167 166 168 170 172 173 174 175 176 179 181 182 183 183 183 184 185 186 188 191 192 194 195 195 196 197 197 197 198 198 196 195 195 195 195 195 195 194 194 193 192 195 195 193 195 193 186 182 179 176 177 178 179 181 181 179 178 178 186 197 226 262 269 251 256 305 322 316 319 328 333 336 342 355 4 0 359 353 348 353 354 352 354 356
166 165 167 170 172 174 175 175 176 177 179 181 182 183 184 184 185 185 186 189 193 194 195 196 196 195 196 197 198 197 197 196 196 196 197 196 196 196 195 194 195 197 199 197 196 198 194 188 188 188 186 185 184 185 189 192 195 197 197 205 227 255 262 250 228 245 294 309 310 316 326 340 348 358 22 27 12 2 357 357 3 0 353 353 355
165 166 168 172 175 176 176 176 177 178 180 182 184 185 185 184 184 184 185 188 191 194 195 196 197 197 195 197 198 197 196 196 197 198 198 198 197 196 195 195 197 200 200 199 201 203 196 191 191 190 187 185 181 183 190 198 205 206 204 215 239 252 235 222 221 269 297 295 301 313 329 348 358 18 36 23 5 358 0 4 6 1 353 351 346
166 168 170 173 176 176 176 177 178 179 181 184 186 186 185 185 185 185 187 188 191 194 196 196 197 198 197 198 199 199 197 196 198 199 200 200 198 196 196 198 200 201 202 205 211 208 200 196 195 192 190 186 183 187 200 210 210 204 203 213 223 206 201 212 244 288 286 275 290 313 339 355 356 13 31 15 359 355 2 4 2 355 349 346 339
168 170 172 174 176 176 177 179 180 181 184 187 188 187 186 186 186 187 188 190 191 193 195 196 195 197 199 201 201 201 199 196 197 200 201 201 199 198 199 200 199 201 206 212 214 209 203 201 201 200 200 196 194 202 212 217 213 203 202 208 208 199 209 235 265 287 276 249 284 321 344 348 337 345 20 9 358 354 3 5 358 349 343 342 340
169 172 173 174 176 177 178 180 183 184 187 189 190 189 187 185 185 186 187 189 190 191 194 196 196 197 200 201 201 202 200 197 198 200 201 202 202 201 203 202 200 203 208 209 207 204 201 201 201 201 200 198 201 211 217 219 216 209 206 211 216 220 237 257 265 268 251 245 290 320 335 337 332 1 15 2 354 357 11 8 354 346 343 340 342
170 172 174 175 177 180 181 184 186 187 188 189 189 188 188 187 186 186 186 186 187 189 191 195 197 198 199 200 201 202 202 201 200 200 201 205 206 206 207 207 205 207 206 199 196 196 198 200 203 205 204 205 211 218 222 221 217 214 215 220 228 238 254 261 249 230 230 256 288 309 325 328 330 40 7 351 347 360 14 7 349 345 346 346 348
171 172 174 177 180 182 183 186 188 188 188 188 186 186 187 188 187 185 184 184 185 187 190 194 196 197 198 199 201 203 204 206 206 203 203 206 208 210 213 214 212 210 206 199 197 201 205 209 212 214 215 217 221 223 226 225 221 218 221 226 234 244 252 250 238 229 235 256 277 291 307 315 324 20 355 342 340 355 11 5 350 347 352 355 357
171 173 175 178 180 182 184 185 186 187 186 186 185 184 185 187 187 186 184 183 184 186 190 193 193 194 195 197 200 204 207 208 210 209 208 207 208 211 215 215 212 211 209 208 209 213 217 218 217 216 218 222 225 227 228 227 227 225 223 225 230 236 239 238 232 230 237 251 265 274 281 288 295 327 336 335 337 346 2 2 353 353 357 358 358
170 173 175 177 178 180 183 185 186 186 185 185 184 183 184 185 185 186 186 185 185 186 189 191 190 191 192 194 198 203 207 209 211 213 212 211 210 212 214 213 210 210 212 214 217 219 221 220 217 217 220 225 228 230 230 229 230 228 223 220 222 225 228 230 229 229 236 246 256 265 267 268 280 301 314 326 332 335 348 355 355 355 356 354 356
170 172 174 176 177 179 182 185 187 187 185 184 183 182 182 182 182 186 188 189 188 186 187 189 190 190 191 194 197 202 206 209 211 213 214 214 216 216 215 212 210 210 212 214 217 219 222 222 221 222 226 229 230 231 231 230 228 226 220 217 219 222 224 225 225 228 234 240 248 257 260 261 273 289 296 309 320 320 324 334 345 352 352 351 354
170 173 177 178 178 179 181 182 185 186 184 185 185 185 184 184 186 188 189 189 188 188 187 188 191 191 193 196 199 202 205 207 211 214 216 218 220 219 216 213 210 207 207 210 213 216 220 221 222 225 229 231 231 230 229 227 226 226 223 219 221 224 224 224 224 226 231 237 245 254 259 265 277 283 285 293 304 309 311 317 331 345 349 347 348
172 174 176 177 177 178 178 177 179 182 182 183 186 188 190 191 190 189 188 187 187 187 188 190 191 193 195 198 201 204 205 207 213 218 219 221 222 219 216 214 211 206 204 206 209 213 217 217 219 225 229 230 230 230 229 227 227 229 227 224 227 228 227 227 229 232 237 245 252 258 264 268 272 274 279 287 294 302 309 313 321 334 342 341 339
172 171 171 171 173 175 176 176 177 179 181 185 188 192 194 195 194 193 193 192 190 189 190 194 197 198 199 198 198 200 203 210 220 226 224 222 222 219 216 216 217 214 211 210 210 214 218 217 217 223 227 224 222 223 224 224 227 230 230 229 232 233 233 235 238 241 246 252 260 266 271 273 272 268 271 280 288 296 306 310 314 325 332 330 326
168 167 167 168 170 172 174 177 178 181 184 189 193 196 197 198 199 199 200 202 202 202 202 203 204 205 205 204 202 200 203 215 229 234 230 225 223 220 217 217 219 220 220 218 216 216 217 215 214 217 218 215 214 216 218 221 225 230 232 234 237 239 240 242 244 246 250 257 264 270 275 278 275 263 261 272 282 291 302 305 306 315 322 320 317
164 165 167 168 170 171 173 176 179 183 185 188 191 195 198 200 202 203 205 208 211 214 215 215 215 214 213 213 214 215 220 231 239 239 233 229 226 224 223 222 222 223 223 222 219 218 218 215 212 210 208 208 209 212 216 220 225 229 233 238 244 247 248 248 248 250 255 262 267 271 273 275 269 255 255 271 283 290 296 298 300 311 318 318 315
162 164 167 170 171 172 172 175 178 182 184 186 187 188 191 196 201 204 207 210 212 215 218 220 221 222 222 222 225 229 235 242 244 240 235 232 229 228 229 228 227 227 226 223 219 217 217 217 215 210 207 209 212 215 218 223 228 232 238 245 251 254 254 252 251 254 260 263 266 267 267 266 259 249 254 272 283 287 289 290 299 311 317 318 314
162 165 169 172 173 174 175 176 178 178 180 182 183 183 183 186 193 200 204 208 212 215 219 221 223 227 229 231 234 234 233 235 238 239 238 236 233 232 232 232 232 231 229 224 220 218 218 219 220 219 217 217 219 221 224 229 234 239 247 253 256 256 255 252 253 259 262 262 264 264 260 255 249 247 255 269 277 278 279 285 299 310 315 317 315
166 167 169 171 173 175 176 176 176 177 178 180 182 183 184 185 188 194 199 205 211 216 220 223 226 228 230 234 238 238 235 234 236 236 234 235 236 235 234 234 233 232 227 222 219 220 221 222 225 227 227 228 228 228 230 234 240 246 254 258 258 256 254 255 261 267 264 261 262 261 255 251 249 250 256 264 269 271 272 281 299 310 312 314 315
171 172 175 175 175 176 177 177 178 179 182 183 183 185 188 190 190 190 192 197 204 210 214 219 223 226 228 231 233 236 237 240 242 239 234 232 233 234 233 231 229 228 226 224 222 223 224 225 227 230 232 233 234 234 235 239 243 249 255 258 259 260 263 266 268 267 264 261 261 260 258 258 257 257 260 264 265 267 271 282 300 310 308 307 309
175 178 181 180 178 179 181 182 182 183 184 186 188 190 193 195 196 195 195 196 198 200 203 208 213 216 219 223 227 233 238 241 244 245 239 231 228 230 228 223 220 221 223 224 226 226 226 227 229 231 234 236 237 238 239 241 245 249 254 258 262 269 275 275 270 266 265 262 259 259 260 262 264 265 266 264 261 263 272 286 298 300 299 301 304
177 179 180 180 181 183 184 185 186 187 189 191 194 196 196 197 198 198 199 199 199 198 201 206 211 215 219 224 229 234 236 237 240 244 239 227 221 224 224 220 220 222 221 222 225 227 228 230 231 232 234 237 239 241 243 243 245 248 252 258 265 274 280 280 274 269 264 256 251 254 259 264 269 267 259 255 259 266 277 289 293 288 292 298 301
180 181 181 183 185 187 187 188 189 190 192 194 195 196 197 198 199 198 199 201 202 202 205 208 211 216 221 226 229 231 232 232 235 237 231 220 217 221 225 225 225 225 223 224 226 227 228 231 232 232 234 237 240 243 245 245 246 247 250 254 260 269 281 286 280 267 255 247 247 256 263 268 270 261 248 253 266 273 279 287 290 289 294 296 295
186 188 188 189 191 191 191 192 192 193 194 195 195 195 197 199 200 200 201 203 204 204 206 207 209 213 219 222 223 225 228 230 230 227 221 217 217 220 225 227 227 226 227 229 230 230 231 233 234 235 237 239 241 244 247 249 248 247 248 251 255 263 276 289 285 263 251 249 253 260 264 267 264 256 254 264 273 277 281 287 290 294 297 296 293
188 193 196 196 197 197 197 196 196 196 195 194 195 197 199 200 199 200 202 203 204 205 205 206 210 215 219 219 218 218 219 221 221 219 215 215 217 221 224 226 227 228 230 232 234 234 236 237 238 239 240 243 246 248 251 252 251 249 248 251 256 260 267 278 284 273 263 262 263 262 263 265 262 259 264 273 278 281 284 288 293 298 300 297 295
188 193 198 199 201 202 202 200 198 197 197 197 197 198 201 202 202 202 202 202 203 204 206 209 213 217 218 218 217 215 214 215 218 217 215 214 217 221 224 226 227 228 231 234 237 239 241 243 243 243 244 247 249 250 252 254 253 250 250 253 258 262 265 270 277 280 274 269 265 261 259 261 263 267 273 278 283 286 287 289 296 300 297 294 295
189 193 197 201 203 203 201 200 200 200 201 201 199 200 203 206 206 204 203 203 204 206 208 214 219 220 221 222 222 220 220 222 223 223 222 222 223 225 227 228 229 230 232 235 238 241 244 247 248 247 246 248 249 250 253 254 253 254 257 258 262 267 268 269 273 277 276 269 262 258 257 263 271 278 282 284 287 288 289 292 296 297 296 295 296
187 190 193 196 198 197 197 199 202 204 204 205 204 205 207 208 208 206 205 206 208 208 210 216 222 224 226 227 225 223 225 229 231 230 231 232 232 232 232 232 232 234 236 238 241 244 247 249 251 251 250 249 249 250 253 255 258 261 264 265 267 268 268 266 267 270 271 264 256 252 257 268 280 288 290 292 291 289 291 293 294 295 297 295 292
186 189 191 192 195 198 201 203 204 204 207 210 212 213 214 212 209 208 209 210 212 213 214 216 220 224 228 229 226 222 224 229 234 237 238 239 238 237 237 238 239 240 242 244 246 248 250 252 253 254 255 254 254 255 257 261 265 268 269 270 271 271 268 262 259 261 263 256 249 252 263 276 288 294 295 297 297 295 294 294 294 295 295 289 286
189 192 194 194 197 202 204 206 207 208 211 214 216 218 219 216 212 211 212 214 217 218 218 218 219 223 226 228 225 220 221 227 235 240 242 243 243 243 244 246 247 247 248 250 251 251 251 252 254 256 257 258 260 261 261 261 264 266 268 269 272 277 279 273 265 265 264 255 250 259 273 285 293 296 298 300 301 299 297 296 297 295 288 281 284
192 194 195 195 196 200 203 205 208 210 212 213 215 217 219 217 214 212 212 215 218 220 219 219 221 223 224 225 223 221 222 227 233 238 243 247 250 252 253 254 255 255 256 257 257 256 254 254 255 256 257 259 261 259 254 248 248 253 260 265 270 280 288 288 283 277 267 257 256 269 282 289 294 296 298 301 302 300 298 298 297 290 280 280 288
192 194 194 194 195 198 201 203 205 207 209 210 212 215 216 216 215 215 214 216 219 221 220 219 220 222 223 224 225 226 227 229 232 236 242 247 252 256 258 259 260 262 263 264 265 263 260 257 255 255 256 258 257 254 249 245 245 252 262 269 275 281 283 280 276 273 266 262 268 282 289 292 295 296 297 298 298 296 296 294 288 280 278 282 286
191 192 193 195 197 199 201 202 204 207 211 214 216 218 219 218 218 219 219 220 221 222 221 220 220 222 223 225 226 229 231 233 235 238 243 247 251 255 257 258 261 264 268 270 269 266 262 259 255 254 255 256 257 258 257 256 256 261 267 271 274 276 276 271 267 265 266 273 283 288 289 292 294 294 294 295 294 293 293 287 278 277 277 276 275
191 192 194 196 199 200 202 204 208 211 215 218 221 223 224 223 223 223 224 223 222 220 220 219 220 222 223 225 227 230 234 236 238 239 242 246 250 252 255 258 261 265 269 271 269 265 262 260 257 255 255 257 259 260 261 264 267 270 270 268 267 268 271 271 268 266 268 275 281 284 286 288 289 286 286 288 288 287 285 278 272 271 267 260 262
194 194 195 197 200 203 206 208 211 214 216 219 222 224 226 226 227 226 227 227 225 223 221 220 220 221 223 225 228 231 233 235 237 238 241 244 247 249 253 259 263 265 268 270 270 268 266 263 261 259 258 259 261 263 265 270 275 274 269 266 266 267 268 268 268 268 270 274 278 281 282 282 280 278 279 282 280 276 273 268 262 256 247 242 248
194 194 194 197 201 205 209 212 214 216 218 219 222 224 225 227 229 229 228 228 227 226 225 225 225 226 228 228 228 230 232 234 237 240 241 243 246 249 254 260 263 263 263 264 267 269 268 266 264 263 261 262 265 268 269 271 273 270 266 264 264 264 264 264 264 266 270 273 277 278 277 275 275 275 275 275 271 265 259 250 241 233 230 234 242
191 190 192 195 198 202 205 209 212 216 219 221 223 224 225 227 230 231 230 229 227 226 226 226 228 230 231 230 230 232 234 236 240 243 243 243 247 251 256 259 261 261 260 259 262 266 267 263 260 259 260 263 266 265 262 261 263 264 265 265 263 262 262 260 261 265 270 273 274 273 270 270 273 273 271 268 259 246 232 222 218 222 229 235 239